London, United Kingdom

9:49 PM GMT on March 24, 2017 (GMT +0000)
Heathrow Airport

Weather History for EGLL - April, 2014

Change the Weather History Date:

Tuesday, April 29, 2014

  Actual Average Record
Temperature  
Mean Temperature 55 °F -  
Max Temperature 63 °F 62 °F 69 °F (2007)
Min Temperature 47 °F 47 °F 40 °F (2016)
Degree Days  
Heating Degree Days 10    
Growing Degree Days 5 (Base 50)    
Moisture  
Dew Point 48 °F    
Average Humidity 76    
Maximum Humidity 95    
Minimum Humidity 45    
Precipitation  
Precipitation 0.00 in - - ()
Sea Level Pressure  
Sea Level Pressure 29.90 in    
Wind  
Wind Speed 5 mph ()    
Max Wind Speed 12 mph    
Max Gust Speed -    
Visibility 5.8 miles    
Events Rain    
Averages and records for this station are not official NWS values.
T = Trace of Precipitation, MM = Missing Value Source: Averaged Metar Reports

Daily Weather History Graph

Daily Weather History Graph

Search for Another Location

Airport or City:

Trip Planner

Search our weather history database for the weather conditions in past years. The results will help you decide how hot, cold, wet, or windy it might be!

Date:

Astronomy

Apr. 29, 2014 Rise Set
Actual Time 5:37 AM BST 8:21 PM BST
Civil Twilight 5:00 AM BST 8:59 PM BST
Nautical Twilight 4:11 AM BST 9:48 PM BST
Astronomical Twilight 3:12 AM BST 10:48 PM BST
Moon 5:48 AM BST (4/29) 8:47 PM BST (4/29)
Length of Visible Light 15h 59m
Length of Day
14h 43m
New Moon, 0% of the Moon is Illuminated
Apr 29
New Moon
May 7
First Quarter
May 14
Full
May 21
Last Quarter
May 28
New

Hourly Weather History & Observations

Time (BST) Temp. Dew Point Humidity Pressure Visibility Wind Dir Wind Speed Gust Speed Precip Events Conditions
12:00 AM 51 °F 48 °F 86% 29.94 in 7 mi NE 2.3 mph - -  
12:20 AM 50.0 °F 48.2 °F 94% 29.92 in - ENE 2.3 mph - N/A   Clear
12:50 AM 50.0 °F 48.2 °F 94% 29.92 in 5.0 mi East 3.5 mph - N/A   Unknown
1:00 AM 49 °F 47 °F 89% 29.93 in 6 mi East 2.3 mph - -   Light Haze
1:20 AM 50.0 °F 48.2 °F 94% 29.92 in 3.7 mi East 2.3 mph - N/A   Unknown
1:50 AM 48.2 °F 46.4 °F 93% 29.92 in 2.5 mi East 3.5 mph - N/A   Haze
2:00 AM 49 °F 47 °F 92% 29.92 in 4 mi East 3.5 mph - -   Light Haze
2:20 AM 48.2 °F 46.4 °F 93% 29.92 in 1.9 mi NE 2.3 mph - N/A   Haze
2:50 AM 48.2 °F 46.4 °F 93% 29.92 in 4.3 mi NNE 3.5 mph - N/A   Unknown
3:00 AM 48 °F 46 °F 89% 29.91 in 4 mi NNE 2.3 mph - -   Light Haze
3:50 AM 48.2 °F 46.4 °F 93% 29.89 in 2.5 mi ENE 4.6 mph - N/A   Mist
4:00 AM 48 °F 46 °F 91% 29.90 in 2 mi NE 2.3 mph - -   Mist
4:20 AM 48.2 °F 46.4 °F 93% 29.89 in 1.6 mi ENE 4.6 mph - N/A   Mostly Cloudy
4:50 AM 50.0 °F 48.2 °F 94% 29.89 in 1.6 mi NE 4.6 mph - N/A   Mostly Cloudy
5:00 AM 49 °F 48 °F 95% 29.90 in 2 mi NE 4.6 mph - -   Mist
5:20 AM 50.0 °F 48.2 °F 94% 29.89 in 1.6 mi NE 3.5 mph - N/A   Mostly Cloudy
5:50 AM 50.0 °F 48.2 °F 94% 29.89 in 1.6 mi NE 4.6 mph - N/A   Mostly Cloudy
6:00 AM 50 °F 48 °F 92% 29.90 in 2 mi NE 5.8 mph - -   Light Haze
6:20 AM 50.0 °F 48.2 °F 94% 29.89 in 1.6 mi Variable 3.5 mph - N/A   Overcast
6:50 AM 51.8 °F 48.2 °F 88% 29.89 in 1.6 mi NE 4.6 mph - N/A   Overcast
7:00 AM 51 °F 48 °F 86% 29.90 in 2 mi NE 4.6 mph - -   Light Haze
7:20 AM 51.8 °F 48.2 °F 88% 29.89 in 1.7 mi NE 4.6 mph - N/A   Mostly Cloudy
7:50 AM 51.8 °F 48.2 °F 88% 29.89 in - NE 5.8 mph - N/A   Mostly Cloudy
8:00 AM 52 °F 48 °F 82% 29.91 in 3 mi NE 5.8 mph - -   Light Haze
8:20 AM 51.8 °F 48.2 °F 88% 29.92 in 2.2 mi NE 5.8 mph - N/A   Mostly Cloudy
8:50 AM 53.6 °F 50.0 °F 88% 29.92 in - ENE 5.8 mph - N/A   Mostly Cloudy
9:00 AM 54 °F 48 °F 74% 29.91 in 4 mi NE 5.8 mph - -   Light Haze
9:20 AM 55.4 °F 50.0 °F 82% 29.92 in 3.1 mi ENE 5.8 mph - N/A   Mostly Cloudy
9:50 AM 55.4 °F 50.0 °F 82% 29.92 in 3.7 mi ENE 6.9 mph - N/A   Mostly Cloudy
10:00 AM 56 °F 49 °F 70% 29.91 in 4 mi ENE 6.9 mph - -   Light Haze
10:20 AM 57.2 °F 50.0 °F 77% 29.92 in 4.3 mi ENE 8.1 mph - N/A   Scattered Clouds
10:50 AM 59.0 °F 51.8 °F 77% 29.92 in 5.0 mi East 9.2 mph - N/A   Scattered Clouds
11:00 AM 59 °F 49 °F 61% 29.91 in 6 mi ENE 9.2 mph - -   Light Haze
11:20 AM 59.0 °F 50.0 °F 72% 29.89 in 4.3 mi NE 9.2 mph - N/A   Scattered Clouds
11:50 AM 59.0 °F 50.0 °F 72% 29.89 in 5.0 mi ENE 10.4 mph - N/A   Scattered Clouds
12:00 PM 59 °F 49 °F 59% 29.90 in 7 mi NE 10.4 mph - -   Scattered Clouds
12:20 PM 59.0 °F 50.0 °F 72% 29.89 in 6.2 mi NE 10.4 mph - N/A   Scattered Clouds
12:50 PM 60.8 °F 48.2 °F 63% 29.89 in 6.2 mi ENE 8.1 mph - N/A   Scattered Clouds
1:00 PM 60 °F 49 °F 57% 29.89 in 9 mi ENE 8.1 mph - -   Partly Cloudy
1:20 PM 60.8 °F 48.2 °F 63% 29.89 in 6.2 mi ENE 10.4 mph - N/A   Scattered Clouds
1:50 PM 59.0 °F 48.2 °F 67% 29.89 in 6.2 mi ENE 10.4 mph - N/A Rain Light Rain Showers
2:00 PM 60 °F 47 °F 51% 29.89 in 12 mi ENE 9.2 mph - - Rain Light Rain Showers
2:20 PM 59.0 °F 48.2 °F 67% 29.89 in 6.2 mi East 9.2 mph - N/A   Scattered Clouds
2:50 PM 60.8 °F 48.2 °F 63% 29.89 in 6.2 mi ENE 9.2 mph - N/A   Partly Cloudy
3:00 PM 62 °F 48 °F 50% 29.88 in 16 mi ENE 9.2 mph - - Rain Rain
3:20 PM 60.8 °F 48.2 °F 63% 29.86 in 6.2 mi ENE 8.1 mph - N/A   Partly Cloudy
3:50 PM 60.8 °F 48.2 °F 63% 29.86 in 6.2 mi East 11.5 mph - N/A   Partly Cloudy
4:00 PM 62 °F 48 °F 50% 29.87 in 16 mi East 10.4 mph - -   Scattered Clouds
4:20 PM 60.8 °F 50.0 °F 68% 29.86 in 6.2 mi East 10.4 mph - N/A   Partly Cloudy
4:50 PM 60.8 °F 48.2 °F 63% 29.86 in 6.2 mi East 10.4 mph - N/A   Partly Cloudy
5:00 PM 60 °F 47 °F 53% 29.87 in 14 mi East 10.4 mph - -   Scattered Clouds
5:20 PM 60.8 °F 48.2 °F 63% 29.86 in 6.2 mi East 8.1 mph - N/A   Partly Cloudy
5:50 PM 60.8 °F 46.4 °F 59% 29.86 in 6.2 mi East 8.1 mph - N/A   Partly Cloudy
6:00 PM 61 °F 45 °F 45% 29.87 in 18 mi ENE 9.2 mph - -   Partly Cloudy
6:20 PM 60.8 °F 46.4 °F 59% 29.86 in 6.2 mi East 9.2 mph - N/A   Partly Cloudy
6:50 PM 60.8 °F 46.4 °F 59% 29.89 in 6.2 mi ESE 9.2 mph - N/A   Partly Cloudy
7:00 PM 60 °F 44 °F 45% 29.88 in 19 mi East 9.2 mph - -   Scattered Clouds
7:20 PM 59.0 °F 44.6 °F 59% 29.89 in 6.2 mi ESE 9.2 mph - N/A   Partly Cloudy
7:50 PM 57.2 °F 46.4 °F 67% 29.89 in 6.2 mi ESE 8.1 mph - N/A   Partly Cloudy
8:00 PM 57 °F 46 °F 57% 29.89 in 15 mi East 8.1 mph - -   Partly Cloudy
8:20 PM 55.4 °F 46.4 °F 72% 29.89 in 6.2 mi ESE 6.9 mph - N/A   Partly Cloudy
8:50 PM 55.4 °F 46.4 °F 72% 29.89 in 6.2 mi East 3.5 mph - N/A   Partly Cloudy
9:00 PM 54 °F 46 °F 65% 29.91 in 10 mi East 5.8 mph - -  
9:20 PM 55.4 °F 46.4 °F 72% 29.89 in 6.2 mi SSE 4.6 mph - N/A   Partly Cloudy
9:50 PM 53.6 °F 46.4 °F 77% 29.92 in 6.2 mi ESE 4.6 mph - N/A   Scattered Clouds
10:00 PM 53 °F 46 °F 70% 29.91 in 7 mi ESE 5.8 mph - -   Partly Cloudy
10:20 PM 51.8 °F 48.2 °F 88% 29.92 in 4.3 mi ESE 4.6 mph - N/A   Mostly Cloudy
10:50 PM 51.8 °F 48.2 °F 88% 29.92 in 4.3 mi ESE 3.5 mph - N/A   Unknown
11:00 PM 51 °F 46 °F 77% 29.91 in 4 mi ESE 5.8 mph - -   Light Haze
11:20 PM 51.8 °F 48.2 °F 88% 29.92 in 4.3 mi East 3.5 mph - N/A   Unknown
11:50 PM 51.8 °F 48.2 °F 88% 29.92 in 3.7 mi Variable 2.3 mph - N/A   Unknown